Location: Mt. Graham
(32.7020°N, 109.8880°W)
Time: 15:02:53
(UTC-07:00)

N. Korean satellite - Visible Passes

Search period start: 24 November 2017 00:00
Search period end: 04 December 2017 00:00
Orbit: 460 x 514 km, 97.2° (Epoch: 24 November)

Date Brightness Start Highest point End Pass type
(mag) Time Alt. Az. Time Alt. Az. Time Alt. Az.
24 Nov 9.1 19:07:00 10° SSW 19:09:47 22° W 19:12:36 10° NW visible
25 Nov 7.5 18:42:50 10° S 18:46:13 49° W 18:49:41 10° NNW visible
26 Nov 9.8 06:15:06 10° NE 06:17:45 18° E 06:20:22 10° SE visible
26 Nov 6.4 18:19:15 10° SSE 18:22:43 70° ENE 18:26:17 10° N visible
27 Nov 7.3 17:56:12 10° SE 17:59:18 30° ENE 18:02:29 10° NNE visible
27 Nov 10.1 19:32:03 10° WSW 19:32:54 11° W 19:33:45 10° W visible
28 Nov 9.1 19:06:26 10° SSW 19:09:15 22° W 19:12:07 10° NW visible
29 Nov 7.5 18:42:14 10° S 18:45:39 49° W 18:49:10 10° NNW visible
30 Nov 9.8 06:14:36 10° NE 06:17:13 18° E 06:19:48 10° SE visible
30 Nov 6.4 18:18:39 10° SSE 18:22:09 70° ENE 18:25:45 10° N visible
01 Dec 7.3 17:55:34 10° SE 17:58:43 30° ENE 18:01:56 10° N visible
01 Dec 10.1 19:31:17 10° WSW 19:32:18 11° W 19:33:20 10° WNW visible
02 Dec 9.1 19:05:46 10° SSW 19:08:38 23° W 19:11:34 10° NW visible
03 Dec 8.5 06:36:44 10° NNE 06:40:13 36° E 06:43:39 10° SSE visible
03 Dec 7.5 18:41:35 10° S 18:45:02 50° W 18:48:35 10° NNW visible
